Fosston, MN

1:09 PM CDT on May 24, 2018 (GMT -0500)
Fosston Municipal

Weather History for KFSE - February, 2013

Change the Weather History Date:

Sunday, February 10, 2013

  Actual Average Record
Temperature  
Mean Temperature 24 °F -  
Max Temperature 26 °F 20 °F 42 °F (1999)
Min Temperature 21 °F -1 °F -41 °F (1988)
Degree Days  
Heating Degree Days 42    
Moisture  
Dew Point 23 °F    
Average Humidity 93    
Maximum Humidity 100    
Minimum Humidity 86    
Precipitation  
Precipitation 0.16 in - - ()
Sea Level Pressure  
Sea Level Pressure 29.66 in    
Wind  
Wind Speed 11 mph (NE)    
Max Wind Speed 29 mph    
Max Gust Speed 33 mph    
Visibility 2 miles    
Events Snow    
Averages and records for this station are not official NWS values.
T = Trace of Precipitation, MM = Missing Value Source: NWS Daily Summary

Daily Weather History Graph

Daily Weather History Graph

Search for Another Location

Airport or City:

Astronomy

Feb. 10, 2013 Rise Set
Actual Time 7:36 AM CST 5:39 PM CST
Civil Twilight 7:04 AM CST 6:11 PM CST
Nautical Twilight 6:27 AM CST 6:47 PM CST
Astronomical Twilight 5:52 AM CST 7:23 PM CST
Moon 7:21 AM CST (2/10) 6:38 PM CST (2/10)
Length of Visible Light 11h 07m
Length of Day
10h 02m
New Moon, 0% of the Moon is Illuminated
Feb 10
New Moon
Feb 17
First Quarter
Feb 25
Full
Mar 4
Last Quarter
Mar 11
New

Hourly Weather History & Observations

Time (CST) Temp. Windchill Dew Point Humidity Pressure Visibility Wind Dir Wind Speed Gust Speed Precip Events Conditions
12:15 AM 26.6 °F 21.2 °F 24.8 °F 93% 29.87 in 7.0 mi ESE 4.6 mph - N/A   Overcast
12:35 AM 26.6 °F 21.2 °F 24.8 °F 93% 29.87 in 7.0 mi East 4.6 mph - N/A   Overcast
12:55 AM 26.6 °F 20.0 °F 24.8 °F 93% 29.86 in 7.0 mi East 5.8 mph - N/A   Overcast
1:15 AM 26.6 °F 20.0 °F 24.8 °F 93% 29.85 in 7.0 mi East 5.8 mph - N/A   Overcast
1:36 AM 26.6 °F 20.0 °F 24.8 °F 93% 29.83 in 7.0 mi East 5.8 mph - N/A   Overcast
1:55 AM 26.6 °F 19.1 °F 24.8 °F 93% 29.83 in 7.0 mi East 6.9 mph - N/A   Overcast
2:15 AM 26.6 °F 18.2 °F 24.8 °F 93% 29.83 in 7.0 mi East 8.1 mph - N/A   Overcast
2:36 AM 26.6 °F 20.0 °F 24.8 °F 93% 29.82 in 7.0 mi East 5.8 mph - N/A   Overcast
2:55 AM 26.6 °F 18.2 °F 24.8 °F 93% 29.82 in 7.0 mi East 8.1 mph - N/A   Overcast
3:15 AM 26.6 °F 19.1 °F 24.8 °F 93% 29.81 in 7.0 mi East 6.9 mph - N/A   Overcast
3:36 AM 24.8 °F 15.3 °F 23.0 °F 93% 29.80 in 5.0 mi East 9.2 mph - N/A   Overcast
3:55 AM 24.8 °F 16.1 °F 23.0 °F 93% 29.79 in 5.0 mi East 8.1 mph - N/A   Overcast
4:15 AM 24.8 °F 15.3 °F 23.0 °F 93% 29.78 in 4.0 mi ENE 9.2 mph - N/A   Overcast
4:36 AM 24.8 °F 16.9 °F 23.0 °F 93% 29.78 in 0.8 mi East 6.9 mph - N/A Snow Snow
4:55 AM 24.8 °F 16.9 °F 23.0 °F 93% 29.77 in 0.8 mi ENE 6.9 mph - N/A Snow Snow
5:15 AM 24.8 °F 16.1 °F 24.8 °F 100% 29.77 in 0.8 mi ENE 8.1 mph - 0.01 in Snow Snow
5:36 AM 24.8 °F 16.1 °F 24.8 °F 100% 29.76 in 2.0 mi ENE 8.1 mph - 0.01 in Snow Light Snow
5:55 AM 24.8 °F 16.1 °F 24.8 °F 100% 29.76 in 2.0 mi ENE 8.1 mph - 0.01 in Snow Light Snow
6:15 AM 24.8 °F 16.1 °F 24.8 °F 100% 29.75 in 2.5 mi ENE 8.1 mph - N/A Snow Light Snow
6:36 AM 24.8 °F 16.9 °F 24.8 °F 100% 29.76 in 1.8 mi ENE 6.9 mph - N/A Snow Light Snow
6:55 AM 24.8 °F 15.3 °F 24.8 °F 100% 29.75 in 1.2 mi NE 9.2 mph - 0.01 in Snow Light Snow
7:15 AM 24.8 °F 16.9 °F 24.8 °F 100% 29.75 in 2.0 mi ENE 6.9 mph - N/A Snow Light Snow
7:36 AM 24.8 °F 16.1 °F 24.8 °F 100% 29.75 in 1.5 mi ENE 8.1 mph - N/A Snow Light Snow
7:55 AM 24.8 °F 16.9 °F 24.8 °F 100% 29.74 in 0.8 mi NE 6.9 mph - N/A Snow Snow
8:15 AM 24.8 °F 17.9 °F 24.8 °F 100% 29.74 in 0.8 mi NE 5.8 mph - 0.01 in Snow Light Snow
8:36 AM 24.8 °F 15.3 °F 24.8 °F 100% 29.73 in 0.8 mi NNE 9.2 mph - 0.01 in Snow Light Snow
8:55 AM 24.8 °F 14.0 °F 24.8 °F 100% 29.70 in 0.2 mi NNE 11.5 mph - 0.02 in Snow Snow
9:15 AM 26.6 °F 16.8 °F 24.8 °F 93% 29.70 in 0.5 mi NE 10.4 mph 16.1 mph N/A Snow Snow
9:36 AM 26.6 °F 15.7 °F 24.8 °F 93% 29.69 in 1.2 mi NE 12.7 mph 17.3 mph 0.01 in Snow Light Snow
9:55 AM 26.6 °F 15.7 °F 24.8 °F 93% 29.68 in 1.2 mi NE 12.7 mph 17.3 mph 0.01 in Snow Light Snow
10:15 AM 26.6 °F 16.8 °F 24.8 °F 93% 29.70 in 1.5 mi NE 10.4 mph - 0.01 in Snow Light Snow
10:35 AM 26.6 °F 17.5 °F 24.8 °F 93% 29.70 in 1.2 mi NE 9.2 mph - 0.01 in Snow Light Snow
10:55 AM 26.6 °F 15.7 °F 24.8 °F 93% 29.68 in 0.8 mi NE 12.7 mph 17.3 mph 0.01 in Snow Light Snow
11:15 AM 26.6 °F 15.2 °F 24.8 °F 93% 29.66 in 0.5 mi NNE 13.8 mph 18.4 mph N/A Snow Snow
11:35 AM 26.6 °F 16.8 °F 24.8 °F 93% 29.66 in 1.0 mi NE 10.4 mph 19.6 mph N/A Snow Light Snow
11:55 AM 26.6 °F 15.2 °F 24.8 °F 93% 29.65 in 2.0 mi NE 13.8 mph 18.4 mph N/A Snow Light Snow
12:15 PM 26.6 °F 15.7 °F 23.0 °F 86% 29.65 in 1.0 mi NE 12.7 mph 18.4 mph N/A Snow Light Snow
12:35 PM 24.8 °F 12.4 °F 23.0 °F 93% 29.63 in 0.5 mi NE 15.0 mph 20.7 mph 0.01 in Snow Snow
12:55 PM 24.8 °F 13.4 °F 23.0 °F 93% 29.62 in 0.2 mi NE 12.7 mph 19.6 mph 0.01 in Snow Snow
1:15 PM 24.8 °F 12.4 °F 23.0 °F 93% 29.60 in 0.5 mi NE 15.0 mph 20.7 mph 0.01 in Snow Snow
1:35 PM 24.8 °F 11.5 °F 23.0 °F 93% 29.58 in 0.5 mi NE 17.3 mph 24.2 mph 0.01 in Snow Light Snow
1:55 PM 24.8 °F 10.7 °F 23.0 °F 93% 29.56 in 0.5 mi NNE 19.6 mph 27.6 mph 0.01 in Snow Light Snow
2:15 PM 24.8 °F 9.6 °F 21.2 °F 86% 29.53 in 0.5 mi NNE 23.0 mph 31.1 mph N/A Snow Light Snow
2:35 PM 24.8 °F 9.3 °F 21.2 °F 86% 29.50 in 0.8 mi NNE 24.2 mph 31.1 mph N/A Snow Light Snow
2:55 PM 24.8 °F 10.0 °F 21.2 °F 86% 29.50 in 0.8 mi NNE 21.9 mph 31.1 mph N/A Snow Light Snow
3:15 PM 24.8 °F 9.3 °F 21.2 °F 86% 29.51 in 0.5 mi NNE 24.2 mph 29.9 mph N/A Snow Light Snow
3:35 PM 24.8 °F 10.3 °F 21.2 °F 86% 29.51 in 0.5 mi NNE 20.7 mph 29.9 mph N/A Snow Light Snow
3:55 PM 24.8 °F 11.1 °F 21.2 °F 86% 29.52 in 0.2 mi NNE 18.4 mph 29.9 mph 0.01 in Snow Snow
4:15 PM 24.8 °F 11.5 °F 21.2 °F 86% 29.53 in 0.2 mi NE 17.3 mph 25.3 mph 0.01 in Snow Snow
4:35 PM 24.8 °F 11.5 °F 21.2 °F 86% 29.54 in 0.2 mi NNE 17.3 mph 21.9 mph 0.02 in Snow Snow
4:55 PM 24.8 °F 12.4 °F 21.2 °F 86% 29.55 in 0.2 mi NNE 15.0 mph 23.0 mph 0.03 in Snow Snow
5:15 PM 24.8 °F 10.7 °F 21.2 °F 86% 29.54 in 0.2 mi NNE 19.6 mph 24.2 mph 0.01 in Snow Snow
5:35 PM 24.8 °F 10.3 °F 21.2 °F 86% 29.54 in 0.8 mi North 20.7 mph 26.5 mph 0.01 in Snow Snow
5:55 PM 24.8 °F 11.5 °F 21.2 °F 86% 29.54 in 0.8 mi North 17.3 mph 23.0 mph 0.02 in Snow Snow
6:15 PM 24.8 °F 10.7 °F 21.2 °F 86% 29.55 in 0.8 mi North 19.6 mph - 0.01 in Snow Snow
6:35 PM 24.8 °F 11.1 °F 21.2 °F 86% 29.56 in 1.0 mi North 18.4 mph - 0.01 in Snow Snow
6:55 PM 24.8 °F 11.5 °F 21.2 °F 86% 29.57 in 1.0 mi North 17.3 mph - 0.01 in Snow Light Snow
7:15 PM 24.8 °F 11.1 °F 21.2 °F 86% 29.58 in 1.0 mi North 18.4 mph 23.0 mph 0.01 in Snow Snow
7:35 PM 23.0 °F 8.3 °F 21.2 °F 93% 29.57 in 1.2 mi North 19.6 mph 23.0 mph 0.01 in Snow Light Snow
7:55 PM 23.0 °F 8.0 °F 21.2 °F 93% 29.57 in 1.2 mi North 20.7 mph - 0.01 in Snow Light Snow
8:15 PM 23.0 °F 8.0 °F 21.2 °F 93% 29.57 in 1.2 mi North 20.7 mph 27.6 mph N/A Snow Light Snow
8:35 PM 23.0 °F 7.6 °F 21.2 °F 93% 29.57 in 1.2 mi North 21.9 mph 27.6 mph N/A Snow Light Snow
8:55 PM 21.2 °F 4.5 °F 21.2 °F 100% 29.57 in 1.5 mi North 24.2 mph - N/A Snow Light Snow
9:15 PM 21.2 °F 4.9 °F 21.2 °F 100% 29.58 in 1.2 mi North 23.0 mph - N/A Snow Light Snow
9:36 PM 21.2 °F 4.9 °F 21.2 °F 100% 29.58 in 1.2 mi North 23.0 mph - N/A Snow Light Snow
9:55 PM 21.2 °F 5.2 °F 19.4 °F 93% 29.58 in 1.8 mi North 21.9 mph 31.1 mph N/A Snow Light Snow
10:15 PM 21.2 °F 4.2 °F 19.4 °F 93% 29.58 in 1.8 mi North 25.3 mph 31.1 mph N/A Snow Light Snow
10:36 PM 21.2 °F 3.3 °F 19.4 °F 93% 29.58 in 1.5 mi North 28.8 mph 32.2 mph N/A Snow Light Snow
10:55 PM 21.2 °F 3.9 °F 19.4 °F 93% 29.59 in 1.5 mi North 26.5 mph 31.1 mph N/A Snow Light Snow
11:15 PM 21.2 °F 4.5 °F 19.4 °F 93% 29.59 in 1.2 mi North 24.2 mph 29.9 mph N/A Snow Light Snow
11:36 PM 21.2 °F 3.3 °F 19.4 °F 93% 29.60 in 1.5 mi North 28.8 mph 32.2 mph N/A Snow Light Snow
11:55 PM 21.2 °F 4.5 °F 19.4 °F 93% 29.60 in 1.8 mi North 24.2 mph 33.4 mph N/A Snow Light Snow